Location: Düngen
(52.0952°N, 10.0219°E)
Time: 15:08:58
(UTC+00:00)

Cosmos 1607 - Pass Details

Date: 11 March 2026
Orbit: 919 x 982 km, 65.0° (Epoch: 14 April)

Event Time Altitude Azimuth Distance (km) Brightness Sun altitude
Rises 18:31:54 0° 317° (NW) 3,632 7.9 -12.2°
Reaches altitude 10° 18:34:26 10° 316° (NW) 2,693 7.2 -12.6°
Maximum altitude 18:40:45 81° 231° (SW) 985 4.1 -13.6°
Drops below altitude 10° 18:47:07 10° 145° (SE) 2,717 5.9 -14.5°
Enters shadow 18:47:09 10° 145° (SE) 2,725 5.9 -14.5°
